DLH4KW EDDF-EKBI

Flight info

Callsign DLH4KW
Flight time 1h 6m
Altitude 37000
Route MARUN3W/25C MARUN Y150 TOLGI/N0449F380 DCT ELSOB DCT PIZID M105 AMRAK DCT LOKSA
Aircraft A321/M-SDE2E3FGIJ1LORWXYZ/HB1

Departure

Time 2026-05-07 07:40
Airport Frankfurt Main Airport (EDDF)

Arrival

Time 2026-05-07 08:46
Airport Billund Airport (EKBI)
Time Latitude Longitude Altitude Speed Heading
2026-05-07 06:57 50.04852 8.56947 360 ft 0 kts 295°
2026-05-07 07:23 50.04852 8.56948 356 ft 0 kts 295°
2026-05-07 07:31 50.04844 8.56974 363 ft 4 kts 293°
2026-05-07 07:31 50.04835 8.57005 363 ft 3 kts 295°
2026-05-07 07:32 50.04830 8.57042 364 ft 4 kts 250°
2026-05-07 07:32 50.04845 8.57071 362 ft 3 kts 205°
2026-05-07 07:32 50.04835 8.57064 363 ft 4 kts 205°
2026-05-07 07:32 50.04810 8.57047 361 ft 4 kts 205°
2026-05-07 07:33 50.04796 8.57036 359 ft 0 kts 205°
2026-05-07 07:36 50.04780 8.57025 356 ft 7 kts 205°
2026-05-07 07:36 50.04702 8.56967 357 ft 16 kts 205°
2026-05-07 07:36 50.04593 8.56905 359 ft 17 kts 191°
2026-05-07 07:37 50.04479 8.56864 362 ft 17 kts 193°
2026-05-07 07:37 50.04359 8.56833 360 ft 15 kts 188°
2026-05-07 07:37 50.04281 8.56876 360 ft 14 kts 103°
2026-05-07 07:37 50.04307 8.57028 361 ft 15 kts 70°
2026-05-07 07:38 50.04345 8.57188 363 ft 16 kts 70°
2026-05-07 07:38 50.04386 8.57360 365 ft 18 kts 70°
2026-05-07 07:38 50.04426 8.57532 362 ft 13 kts 71°
2026-05-07 07:38 50.04398 8.57644 368 ft 12 kts 144°
2026-05-07 07:39 50.04310 8.57697 364 ft 15 kts 174°
2026-05-07 07:39 50.04259 8.57633 365 ft 0 kts 246°
2026-05-07 07:39 50.04259 8.57632 365 ft 1 kts 246°
2026-05-07 07:40 50.04223 8.57488 369 ft 45 kts 250°
2026-05-07 07:40 50.04019 8.56623 359 ft 123 kts 249°
2026-05-07 07:40 50.03660 8.55131 659 ft 153 kts 252°
2026-05-07 07:40 50.03283 8.53598 1512 ft 152 kts 252°
2026-05-07 07:41 50.02903 8.52001 2047 ft 167 kts 253°
2026-05-07 07:41 50.02399 8.50241 2381 ft 192 kts 240°
2026-05-07 07:41 50.01394 8.48726 2822 ft 210 kts 214°
2026-05-07 07:41 49.99997 8.47966 3464 ft 217 kts 191°
2026-05-07 07:42 49.98501 8.47628 4130 ft 218 kts 190°
2026-05-07 07:42 49.96986 8.47293 4800 ft 220 kts 189°
2026-05-07 07:42 49.95478 8.46802 5372 ft 226 kts 198°
2026-05-07 07:42 49.93902 8.46075 5605 ft 248 kts 198°
2026-05-07 07:43 49.92251 8.45094 6162 ft 257 kts 216°
2026-05-07 07:43 49.91045 8.43102 6911 ft 254 kts 246°
2026-05-07 07:43 49.90622 8.40495 7755 ft 249 kts 274°
2026-05-07 07:43 49.91043 8.37930 8613 ft 248 kts 299°
2026-05-07 07:44 49.92202 8.35843 9116 ft 266 kts 325°
2026-05-07 07:44 49.93961 8.34843 9791 ft 278 kts 353°
2026-05-07 07:44 49.95895 8.35318 10467 ft 292 kts 20°
2026-05-07 07:44 49.97810 8.36711 10721 ft 316 kts 24°
2026-05-07 07:45 49.99822 8.38307 11094 ft 331 kts 25°
2026-05-07 07:45 50.01877 8.39987 11760 ft 336 kts 26°
2026-05-07 07:45 50.03954 8.41681 12470 ft 339 kts 26°
2026-05-07 07:45 50.06059 8.43376 13195 ft 342 kts 25°
2026-05-07 07:46 50.08185 8.45069 13913 ft 345 kts 25°
2026-05-07 07:46 50.10332 8.46768 14549 ft 348 kts 25°
2026-05-07 07:46 50.12495 8.48475 15190 ft 350 kts 25°
2026-05-07 07:46 50.14677 8.50195 15854 ft 352 kts 25°
2026-05-07 07:47 50.16874 8.51928 16478 ft 356 kts 26°
2026-05-07 07:47 50.19099 8.53684 17091 ft 360 kts 26°
2026-05-07 07:47 50.21335 8.55457 17713 ft 363 kts 25°
2026-05-07 07:47 50.23595 8.57256 18297 ft 367 kts 26°
2026-05-07 07:48 50.25878 8.59072 18813 ft 370 kts 25°
2026-05-07 07:48 50.28150 8.60878 19324 ft 373 kts 26°
2026-05-07 07:48 50.30471 8.62727 19848 ft 376 kts 25°
2026-05-07 07:48 50.32808 8.64591 20393 ft 379 kts 26°
2026-05-07 07:49 50.35162 8.66475 20917 ft 381 kts 26°
2026-05-07 07:49 50.37530 8.68372 21434 ft 384 kts 26°
2026-05-07 07:49 50.39919 8.70281 21933 ft 387 kts 26°
2026-05-07 07:49 50.42328 8.72207 22419 ft 390 kts 26°
2026-05-07 07:50 50.44753 8.74153 22906 ft 393 kts 26°
2026-05-07 07:50 50.47197 8.76119 23375 ft 396 kts 26°
2026-05-07 07:50 50.49661 8.78105 23805 ft 399 kts 26°
2026-05-07 07:50 50.52138 8.80105 24223 ft 401 kts 26°
2026-05-07 07:51 50.54629 8.82115 24644 ft 403 kts 27°
2026-05-07 07:51 50.57127 8.84129 25068 ft 405 kts 27°
2026-05-07 07:51 50.59643 8.86160 25492 ft 407 kts 26°
2026-05-07 07:51 50.62169 8.88201 25918 ft 409 kts 26°
2026-05-07 07:52 50.64710 8.90255 26339 ft 411 kts 26°
2026-05-07 07:52 50.67260 8.92324 26761 ft 413 kts 27°
2026-05-07 07:52 50.69821 8.94404 27165 ft 416 kts 27°
2026-05-07 07:52 50.72402 8.96503 27582 ft 417 kts 26°
2026-05-07 07:53 50.74986 8.98606 27965 ft 420 kts 27°
2026-05-07 07:53 50.77588 9.00728 28376 ft 422 kts 27°
2026-05-07 07:53 50.80204 9.02863 28754 ft 424 kts 27°
2026-05-07 07:53 50.82833 9.05012 29144 ft 426 kts 27°
2026-05-07 07:54 50.85466 9.07172 29532 ft 428 kts 27°
2026-05-07 07:54 50.88119 9.09352 29901 ft 431 kts 27°
2026-05-07 07:54 50.90786 9.11539 30248 ft 433 kts 27°
2026-05-07 07:54 50.93474 9.13731 30521 ft 436 kts 27°
2026-05-07 07:55 50.96182 9.15934 30796 ft 439 kts 26°
2026-05-07 07:55 50.98911 9.18151 31038 ft 442 kts 27°
2026-05-07 07:55 51.01663 9.20389 31278 ft 446 kts 27°
2026-05-07 07:55 51.04432 9.22648 31495 ft 449 kts 27°
2026-05-07 07:56 51.07212 9.24926 31730 ft 452 kts 27°
2026-05-07 07:56 51.10040 9.27151 32003 ft 453 kts 22°
2026-05-07 07:56 51.12969 9.28770 32287 ft 453 kts 14°
2026-05-07 07:56 51.16043 9.29873 32588 ft 453 kts 11°
2026-05-07 07:57 51.19128 9.30934 32882 ft 454 kts 11°
2026-05-07 07:57 51.22220 9.31997 33160 ft 455 kts 12°
2026-05-07 07:57 51.25312 9.33060 33468 ft 456 kts 12°
2026-05-07 07:57 51.28417 9.34135 33731 ft 457 kts 12°
2026-05-07 07:58 51.31527 9.35219 34024 ft 457 kts 11°
2026-05-07 07:58 51.34640 9.36304 34243 ft 459 kts 12°
2026-05-07 07:58 51.37757 9.37392 34512 ft 458 kts 11°
2026-05-07 07:58 51.40872 9.38477 34776 ft 458 kts 11°
2026-05-07 07:59 51.43988 9.39561 35009 ft 459 kts 11°
2026-05-07 07:59 51.47104 9.40647 35281 ft 458 kts 11°
2026-05-07 07:59 51.50220 9.41738 35523 ft 458 kts 11°
2026-05-07 07:59 51.53336 9.42832 35790 ft 458 kts 11°
2026-05-07 08:00 51.56445 9.43927 36018 ft 459 kts 11°
2026-05-07 08:00 51.59563 9.45024 36250 ft 459 kts 11°
2026-05-07 08:00 51.62683 9.46123 36471 ft 459 kts 11°
2026-05-07 08:00 51.65805 9.47224 36686 ft 459 kts 11°
2026-05-07 08:01 51.68928 9.48329 36899 ft 460 kts 11°
2026-05-07 08:01 51.75155 9.50539 36977 ft 456 kts 11°
2026-05-07 08:02 51.80310 9.52368 36981 ft 456 kts 11°
2026-05-07 08:02 51.86582 9.53407 36983 ft 453 kts 359°
2026-05-07 08:03 51.92927 9.53548 36988 ft 454 kts 359°
2026-05-07 08:03 51.99241 9.53708 36987 ft 454 kts 360°
2026-05-07 08:04 52.05559 9.53877 36995 ft 454 kts 359°
2026-05-07 08:04 52.11876 9.54021 37004 ft 454 kts 359°
2026-05-07 08:05 52.18163 9.54165 37017 ft 455 kts 359°
2026-05-07 08:05 52.24486 9.54320 37021 ft 455 kts 359°
2026-05-07 08:06 52.30814 9.54483 37023 ft 455 kts 359°
2026-05-07 08:06 52.37142 9.54644 37029 ft 455 kts 359°
2026-05-07 08:07 52.43467 9.54796 37024 ft 455 kts 359°
2026-05-07 08:07 52.49798 9.54953 37026 ft 455 kts 359°
2026-05-07 08:08 52.56128 9.55115 37026 ft 454 kts 359°
2026-05-07 08:08 52.62451 9.55273 37051 ft 454 kts 359°
2026-05-07 08:09 52.68763 9.55442 37046 ft 454 kts 359°
2026-05-07 08:09 52.75081 9.55620 37038 ft 454 kts 359°
2026-05-07 08:10 52.81395 9.55777 37042 ft 453 kts 359°
2026-05-07 08:10 52.87704 9.55922 37046 ft 453 kts 359°
2026-05-07 08:11 52.94007 9.56075 37044 ft 453 kts 359°
2026-05-07 08:11 53.00304 9.56251 37048 ft 453 kts 359°
2026-05-07 08:12 53.06603 9.56420 37052 ft 453 kts 359°
2026-05-07 08:12 53.12901 9.56570 37052 ft 452 kts 359°
2026-05-07 08:13 53.19195 9.56733 37052 ft 452 kts 359°
2026-05-07 08:13 53.25480 9.56893 37050 ft 452 kts 359°
2026-05-07 08:14 53.31766 9.57055 37046 ft 452 kts 359°
2026-05-07 08:14 53.38052 9.57232 37057 ft 452 kts 359°
2026-05-07 08:15 53.44332 9.57390 37072 ft 451 kts 359°
2026-05-07 08:15 53.50571 9.57541 37073 ft 451 kts 359°
2026-05-07 08:16 53.56848 9.57709 37075 ft 451 kts 359°
2026-05-07 08:16 53.63124 9.57899 37078 ft 451 kts 359°
2026-05-07 08:17 53.69407 9.58191 36889 ft 453 kts
2026-05-07 08:17 53.72587 9.58481 35864 ft 462 kts
2026-05-07 08:17 53.75784 9.58844 35369 ft 457 kts
2026-05-07 08:17 53.78930 9.59226 34887 ft 452 kts
2026-05-07 08:18 53.82057 9.59592 34400 ft 448 kts
2026-05-07 08:18 53.85154 9.59929 33881 ft 444 kts
2026-05-07 08:18 53.88225 9.60234 33372 ft 439 kts
2026-05-07 08:18 53.91255 9.60517 32889 ft 434 kts
2026-05-07 08:19 53.94255 9.60796 32415 ft 429 kts
2026-05-07 08:19 53.97222 9.61083 31930 ft 424 kts
2026-05-07 08:19 54.00157 9.61371 31466 ft 419 kts
2026-05-07 08:19 54.03054 9.61657 31004 ft 415 kts
2026-05-07 08:20 54.05913 9.61941 30546 ft 410 kts
2026-05-07 08:20 54.08746 9.62226 30106 ft 406 kts
2026-05-07 08:20 54.11550 9.62513 29629 ft 401 kts
2026-05-07 08:20 54.14310 9.62792 29211 ft 394 kts
2026-05-07 08:21 54.17025 9.63066 28794 ft 388 kts
2026-05-07 08:21 54.19704 9.63330 28396 ft 383 kts
2026-05-07 08:21 54.22345 9.63596 28003 ft 377 kts
2026-05-07 08:21 54.24947 9.63860 27622 ft 372 kts
2026-05-07 08:22 54.27517 9.64120 27238 ft 367 kts
2026-05-07 08:22 54.30052 9.64377 26865 ft 362 kts
2026-05-07 08:22 54.32553 9.64627 26490 ft 357 kts
2026-05-07 08:22 54.35019 9.64868 26122 ft 353 kts
2026-05-07 08:23 54.37458 9.65111 25767 ft 351 kts
2026-05-07 08:23 54.39889 9.65360 25381 ft 349 kts
2026-05-07 08:23 54.42307 9.65604 25001 ft 347 kts
2026-05-07 08:23 54.44707 9.65842 24621 ft 344 kts
2026-05-07 08:24 54.47088 9.66077 24225 ft 342 kts
2026-05-07 08:24 54.49453 9.66314 23852 ft 339 kts
2026-05-07 08:24 54.51804 9.66558 23440 ft 337 kts
2026-05-07 08:24 54.54119 9.67114 23044 ft 336 kts
2026-05-07 08:25 54.56418 9.67842 22661 ft 334 kts
2026-05-07 08:25 54.58694 9.68566 22280 ft 332 kts
2026-05-07 08:25 54.60930 9.69281 21908 ft 330 kts
2026-05-07 08:25 54.63178 9.70002 21534 ft 327 kts
2026-05-07 08:26 54.67633 9.71347 20778 ft 322 kts
2026-05-07 08:26 54.69845 9.71915 20401 ft 320 kts
2026-05-07 08:26 54.72046 9.72454 20030 ft 318 kts
2026-05-07 08:27 54.74233 9.72988 19663 ft 317 kts
2026-05-07 08:27 54.76407 9.73530 19294 ft 315 kts
2026-05-07 08:27 54.78565 9.74074 18932 ft 313 kts
2026-05-07 08:27 54.80714 9.74622 18564 ft 311 kts
2026-05-07 08:28 54.82860 9.74898 18176 ft 308 kts 356°
2026-05-07 08:28 54.84977 9.74553 17807 ft 305 kts 351°
2026-05-07 08:28 54.87075 9.74119 17446 ft 303 kts 352°
2026-05-07 08:28 54.89162 9.73697 17091 ft 301 kts 352°
2026-05-07 08:29 54.91233 9.73278 16736 ft 299 kts 352°
2026-05-07 08:29 54.93285 9.72858 16376 ft 297 kts 352°
2026-05-07 08:29 54.95332 9.72437 16027 ft 295 kts 352°
2026-05-07 08:29 54.97363 9.72021 15685 ft 293 kts 352°
2026-05-07 08:30 54.99383 9.71614 15331 ft 291 kts 352°
2026-05-07 08:30 55.01392 9.71211 14996 ft 290 kts 352°
2026-05-07 08:30 55.03389 9.70808 14649 ft 288 kts 352°
2026-05-07 08:30 55.05374 9.70408 14294 ft 286 kts 352°
2026-05-07 08:31 55.07346 9.70007 13970 ft 285 kts 352°
2026-05-07 08:31 55.09285 9.69608 13611 ft 283 kts 352°
2026-05-07 08:31 55.11262 9.69200 13263 ft 281 kts 352°
2026-05-07 08:31 55.13200 9.68804 12928 ft 280 kts 353°
2026-05-07 08:32 55.15101 9.68417 12600 ft 278 kts 353°
2026-05-07 08:32 55.17014 9.68024 12265 ft 276 kts 353°
2026-05-07 08:32 55.18936 9.67629 11934 ft 274 kts 353°
2026-05-07 08:32 55.20803 9.67243 11607 ft 273 kts 353°
2026-05-07 08:33 55.22682 9.66858 11272 ft 271 kts 353°
2026-05-07 08:33 55.24549 9.66472 10957 ft 270 kts 353°
2026-05-07 08:33 55.26404 9.66086 10630 ft 267 kts 353°
2026-05-07 08:33 55.28240 9.65701 10306 ft 264 kts 353°
2026-05-07 08:34 55.30060 9.65324 9972 ft 262 kts 354°
2026-05-07 08:34 55.31864 9.64954 9638 ft 260 kts 354°
2026-05-07 08:34 55.33649 9.64591 9317 ft 257 kts 354°
2026-05-07 08:34 55.35412 9.64231 9007 ft 255 kts 353°
2026-05-07 08:35 55.37172 9.63867 8697 ft 254 kts 353°
2026-05-07 08:35 55.38918 9.63498 8385 ft 253 kts 353°
2026-05-07 08:35 55.40665 9.63130 8071 ft 252 kts 353°
2026-05-07 08:35 55.42399 9.62769 7758 ft 250 kts 353°
2026-05-07 08:36 55.44127 9.62410 7456 ft 250 kts 353°
2026-05-07 08:36 55.45846 9.62055 7155 ft 249 kts 353°
2026-05-07 08:36 55.47566 9.61704 6843 ft 248 kts 352°
2026-05-07 08:36 55.49277 9.61350 6537 ft 247 kts 352°
2026-05-07 08:37 55.50984 9.60992 6214 ft 247 kts 352°
2026-05-07 08:37 55.52683 9.60636 5882 ft 245 kts 352°
2026-05-07 08:37 55.54377 9.60284 5583 ft 245 kts 352°
2026-05-07 08:37 55.56061 9.59926 5290 ft 243 kts 352°
2026-05-07 08:38 55.57709 9.59575 5108 ft 234 kts 352°
2026-05-07 08:38 55.59315 9.59239 4797 ft 232 kts 353°
2026-05-07 08:38 55.60909 9.58906 4455 ft 229 kts 353°
2026-05-07 08:38 55.62492 9.58574 3986 ft 230 kts 352°
2026-05-07 08:39 55.64081 9.58240 3537 ft 230 kts 352°
2026-05-07 08:39 55.65669 9.57903 3108 ft 229 kts 351°
2026-05-07 08:39 55.67165 9.57228 2994 ft 213 kts 338°
2026-05-07 08:39 55.68470 9.56252 3003 ft 197 kts 336°
2026-05-07 08:40 55.69714 9.55326 2995 ft 192 kts 336°
2026-05-07 08:40 55.70938 9.54422 2995 ft 190 kts 336°
2026-05-07 08:40 55.72142 9.53528 2998 ft 190 kts 336°
2026-05-07 08:40 55.73334 9.52538 2996 ft 189 kts 326°
2026-05-07 08:41 55.74286 9.50961 2999 ft 187 kts 304°
2026-05-07 08:41 55.74840 9.48954 2987 ft 171 kts 283°
2026-05-07 08:41 55.74964 9.47003 3001 ft 151 kts 265°
2026-05-07 08:41 55.74913 9.45202 2987 ft 142 kts 265°
2026-05-07 08:42 55.74864 9.43472 2980 ft 140 kts 265°
2026-05-07 08:42 55.74816 9.41757 2880 ft 138 kts 265°
2026-05-07 08:42 55.74767 9.40060 2734 ft 138 kts 265°
2026-05-07 08:42 55.74719 9.38358 2560 ft 138 kts 265°
2026-05-07 08:43 55.74670 9.36670 2392 ft 137 kts 265°
2026-05-07 08:43 55.74621 9.34985 2205 ft 137 kts 265°
2026-05-07 08:43 55.74573 9.33304 2019 ft 137 kts 266°
2026-05-07 08:43 55.74524 9.31624 1837 ft 136 kts 266°
2026-05-07 08:44 55.74475 9.29952 1640 ft 135 kts 265°
2026-05-07 08:44 55.74426 9.28300 1455 ft 135 kts 266°
2026-05-07 08:44 55.74375 9.26653 1261 ft 134 kts 266°
2026-05-07 08:44 55.74324 9.25003 1044 ft 132 kts 267°
2026-05-07 08:45 55.74292 9.23382 852 ft 131 kts 265°
2026-05-07 08:45 55.74237 9.21784 692 ft 130 kts 264°
2026-05-07 08:45 55.74190 9.20188 560 ft 132 kts 265°
2026-05-07 08:45 55.74142 9.18536 376 ft 135 kts 266°
2026-05-07 08:46 55.74090 9.16897 254 ft 126 kts 265°
2026-05-07 08:46 55.74044 9.15511 230 ft 97 kts 267°
2026-05-07 08:46 55.74013 9.14484 224 ft 72 kts 267°
2026-05-07 08:46 55.73993 9.13853 222 ft 37 kts 266°
2026-05-07 08:47 55.73980 9.13462 219 ft 24 kts 266°
2026-05-07 08:47 55.74017 9.13280 219 ft 15 kts 330°
2026-05-07 08:47 55.74131 9.13282 222 ft 18 kts 20°
2026-05-07 08:47 55.74220 9.13440 225 ft 19 kts 70°
2026-05-07 08:48 55.74239 9.13674 220 ft 18 kts 87°
2026-05-07 08:48 55.74244 9.13880 221 ft 17 kts 87°
2026-05-07 08:48 55.74250 9.14102 223 ft 19 kts 87°
2026-05-07 08:48 55.74257 9.14335 224 ft 16 kts 86°
2026-05-07 08:49 55.74288 9.14468 225 ft 12 kts 19°
2026-05-07 08:49 55.74347 9.14471 225 ft 14 kts 357°
2026-05-07 08:49 55.74437 9.14506 226 ft 14 kts 57°
2026-05-07 08:49 55.74450 9.14685 227 ft 15 kts 86°
2026-05-07 08:50 55.74462 9.14833 228 ft 5 kts 50°
2026-05-07 08:50 55.74481 9.14830 228 ft 4 kts 340°
2026-05-07 08:50 55.74509 9.14816 228 ft 2 kts 353°
2026-05-07 08:50 55.74528 9.14814 228 ft 2 kts 355°
2026-05-07 08:51 55.74534 9.14813 228 ft 0 kts 355°